CAPE
2 0 0 3 1 0 0 0 0 0 0 0 0 4 18 6 0 0 0 0 0 0 0 0 0 0 0 0 0 0 0 0 0 0 0 0 0 0 0 0 2 0 8 8 1 93 71 340 583 487 391 441 347 372
1 1 0 5 1 0 0 0 0 0 0 2 1 0 16 12 0 0 0 0 0 0 0 0 0 0 0 0 0 0 0 0 0 0 0 0 0 0 0 0 0 6 4 28 0 56 105 98 356 349 366 455 397 434
2 0 0 4 0 0 0 0 0 0 0 1 0 1 14 7 0 0 0 0 0 0 0 0 0 0 0 0 0 0 0 0 0 0 0 0 6 0 0 0 0 0 0 31 44 76 177 240 249 203 138 210 361 362
2 1 0 3 0 0 0 0 0 0 0 0 0 13 26 2 0 0 0 0 0 0 0 0 0 0 0 0 0 0 0 0 0 0 0 0 0 0 0 0 0 0 0 0 7 69 119 130 119 3 22 105 322 220
2 0 0 2 0 0 0 0 0 0 0 1 9 19 17 2 0 0 0 0 0 0 0 0 0 0 0 0 0 0 0 0 0 0 0 0 0 0 0 0 1 9 0 6 18 39 33 21 10 0 1 5 15 36
1 0 0 1 0 0 0 0 0 0 2 2 10 24 10 3 0 0 0 0 0 0 0 0 0 0 0 0 0 0 0 0 0 0 0 0 0 0 0 0 0 0 20 14 70 59 20 0 0 0 0 0 0 16
0 0 1 0 1 0 0 0 0 0 3 3 9 11 3 0 0 0 0 0 0 0 0 0 0 0 0 0 0 0 0 0 0 0 0 0 0 0 0 0 0 0 54 51 65 87 74 38 6 16 0 149 51 57
0 0 2 1 0 0 0 0 0 0 3 10 14 1 0 0 0 0 0 0 0 0 0 0 0 0 0 0 0 0 0 0 0 0 0 0 0 0 0 0 0 0 23 32 100 110 54 31 129 136 319 67 7 2
0 1 0 1 0 0 0 0 3 2 13 5 0 0 0 0 0 0 0 0 0 0 0 0 0 0 0 0 0 0 0 0 0 0 0 0 0 0 0 0 0 5 30 37 53 49 12 15 209 245 6 7 0 0
1 2 1 0 0 0 0 0 0 4 0 0 0 1 10 0 0 0 0 0 0 0 0 0 0 0 0 0 0 0 0 0 0 0 0 0 0 0 0 0 0 5 15 19 27 7 31 36 122 10 6 0 0 0
3 1 1 0 0 0 0 0 1 0 0 0 3 0 0 0 0 0 0 0 0 0 0 0 0 0 0 0 0 0 2 3 2 0 0 0 0 0 0 0 0 11 18 52 0 0 89 29 65 8 16 4 0 0
2 2 0 0 0 0 0 2 0 0 0 0 0 0 0 0 0 0 0 0 0 0 0 0 0 0 0 0 0 3 73 60 31 0 15 42 51 100 54 105 123 155 81 0 0 0 15 123 56 12 9 4 1 0
2 0 0 0 0 0 0 0 12 0 0 0 0 0 0 0 0 0 0 0 0 0 0 0 0 0 0 0 0 27 28 51 2 20 54 18 158 75 74 85 59 47 109 58 7 0 0 22 15 6 1 0 0 0
0 0 0 0 0 4 6 16 0 0 0 16 4 0 0 0 0 0 0 0 0 0 0 0 0 0 0 0 0 31 23 9 33 36 21 17 35 22 78 140 159 158 168 141 100 57 29 16 0 0 0 0 0 0
3 0 2 5 10 17 16 2 0 0 0 0 0 0 0 0 0 0 0 0 0 0 0 0 0 0 0 1 44 23 24 18 11 0 0 0 9 8 56 123 122 145 110 82 20 1 0 0 0 0 0 0 0 0
0 1 0 4 6 6 1 0 0 0 0 0 0 0 0 0 0 0 0 0 0 0 0 0 0 0 0 5 30 31 32 8 0 0 0 25 1 1 0 67 63 30 10 1 0 0 0 0 0 0 0 0 0 0
0 0 6 9 10 0 0 0 0 6 3 0 0 0 0 0 0 0 0 0 0 0 0 0 0 0 0 0 3 4 23 17 12 0 2 16 24 0 0 0 3 6 0 0 0 0 0 0 0 0 0 0 0 0
0 0 11 6 5 0 0 0 4 0 0 0 0 0 0 0 0 0 0 0 0 0 0 0 0 0 0 0 14 15 7 3 0 0 0 0 0 0 0 0 0 0 0 0 0 0 0 0 0 0 1 7 16 16
0 0 29 30 12 0 0 2 0 0 0 0 0 0 0 0 0 0 0 0 0 0 0 0 0 0 0 2 1 0 0 0 14 3 0 0 0 0 0 1 0 0 0 3 6 6 8 6 11 26 18 23 41 36
10 44 17 13 1 0 0 0 0 0 0 0 0 0 0 0 0 0 0 0 0 0 0 0 0 0 0 0 0 0 0 0 6 15 0 0 0 0 0 8 16 6 13 10 5 0 11 16 11 9 8 11 18 47
32 34 30 17 8 2 0 0 0 0 0 0 0 0 0 0 0 0 0 0 0 0 0 0 0 0 0 0 0 0 1 0 1 0 0 0 2 9 21 20 22 26 35 33 41 35 18 14 11 16 24 22 15 29
12 12 3 0 1 0 0 0 0 0 0 0 0 0 0 0 0 0 0 0 0 0 0 0 0 0 0 0 0 0 0 0 0 0 0 2 11 32 33 25 35 26 8 13 3 2 0 0 0 0 2 5 8 11
1 1 0 0 0 0 0 0 0 0 0 0 0 0 0 0 0 0 0 0 0 0 0 0 0 0 0 0 0 0 0 0 0 0 4 14 17 4 2 1 5 3 0 0 2 13 14 14 1 11 41 33 12 2
3 0 0 0 0 0 0 0 0 0 0 0 0 0 0 0 0 0 0 0 0 0 0 0 0 0 0 0 0 0 0 0 0 0 0 28 31 4 0 0 4 4 5 2 18 35 25 15 6 16 37 31 15 9
0 0 0 0 0 1 0 0 0 2 0 0 0 0 0 0 0 0 0 0 1 6 6 5 0 0 0 0 0 0 0 1 10 20 5 1 0 0 0 4 21 22 14 22 26 27 6 7 3 4 8 4 6 7
0 0 0 0 1 8 24 6 0 0 0 0 0 0 8 0 0 1 1 0 1 1 1 0 0 0 0 0 0 36 20 1 0 13 0 1 4 16 26 24 20 22 17 20 20 22 15 1 0 0 0 0 0 0
0 0 0 0 0 5 14 7 0 0 0 0 7 3 0 0 0 0 1 2 0 0 0 0 0 0 0 0 0 0 4 12 15 6 1 1 0 0 4 18 8 5 2 3 0 1 8 3 6 6 6 6 0 0
0 0 0 0 0 0 2 8 11 2 0 2 0 2 2 1 5 35 8 8 16 8 6 0 1 7 7 8 0 10 8 1 5 3 0 0 0 0 0 0 0 0 0 0 0 4 12 13 10 12 27 30 12 0
0 0 0 0 0 0 0 0 0 0 0 0 0 0 12 31 8 6 2 4 7 10 8 8 8 3 4 3 5 6 0 1 0 12 8 0 0 0 0 0 0 0 0 0 0 0 0 0 0 0 0 1 0 2
0 0 10 3 1 0 1 0 0 1 0 0 4 14 6 0 0 0 0 0 5 7 9 6 2 1 10 24 14 15 0 0 4 1 0 0 0 0 0 0 0 0 0 0 0 0 0 0 0 0 0 0 0 0
0 0 1 0 0 0 0 0 1 5 5 5 7 0 0 0 0 0 0 0 0 10 1 0 1 3 9 11 8 9 0 0 0 0 0 0 0 0 0 0 0 0 0 0 0 0 0 0 0 0 0 0 0 0
0 0 1 4 35 14 6 4 3 3 3 1 2 9 0 0 0 0 0 0 0 0 0 0 0 0 0 0 0 0 0 0 0 0 0 0 0 0 0 0 0 0 0 0 0 0 0 0 0 0 0 0 0 0
0 0 5 20 25 16 10 6 15 14 3 1 0 0 0 0 0 0 0 0 0 0 0 0 0 0 0 0 0 0 0 0 0 0 0 0 0 0 0 0 0 0 0 0 0 0 0 0 0 0 0 0 0 0
CIN
0 -1 0 0 0 0 0 0 0 0 0 0 0 -4 -1 -9 0 0 0 0 0 0 0 0 0 0 0 0 0 0 0 0 0 0 -10 0 0 0 0 0 -126 0 -57 -130 -97 -47 -19 -239 -138 -60 -152 -155 -143 -123
-1 -2 -4 0 0 0 0 0 0 0 0 0 -1 -2 0 -4 0 0 0 0 0 0 0 0 0 0 0 0 0 0 0 0 0 0 0 0 0 0 0 0 0 -64 -75 -114 -9 -142 -214 -278 -203 -220 -168 -100 -86 -65
0 0 0 -3 0 0 0 0 0 0 0 0 0 -4 0 -8 0 0 0 0 0 0 0 0 0 0 0 0 0 0 0 0 0 0 0 0 -43 -1 0 0 0 0 0 -97 -109 -144 -171 -173 -168 -180 -163 -105 -49 -35
0 -1 0 0 0 0 0 0 0 0 0 0 0 -2 0 -11 0 0 0 0 0 0 0 0 0 0 0 0 0 0 0 0 0 0 0 0 0 0 -18 0 0 -16 -23 0 -105 -95 -121 -137 -132 -127 -151 -79 -35 -35
0 -1 0 0 0 0 0 0 0 0 0 -3 -7 -6 0 -11 0 0 0 0 0 0 0 0 0 0 0 0 0 0 0 0 0 0 0 0 0 0 0 -9 -60 -88 -9 -42 -52 -79 -117 -133 -139 -40 -50 -79 -66 -58
-1 0 0 -5 0 0 0 0 0 0 -3 -2 -8 0 -2 -28 0 0 0 0 0 0 0 0 0 0 0 0 0 0 0 0 0 0 0 0 0 0 0 0 0 -3 -139 -144 -35 -107 -111 0 0 -6 -4 0 0 -31
-1 0 -3 0 0 0 0 0 0 0 -2 -4 -1 -2 -29 0 0 0 0 0 0 0 0 0 0 0 0 0 0 0 0 0 0 0 0 0 0 0 0 0 0 0 -105 -136 -116 -94 -59 -55 -34 -84 -24 -43 -51 -46
0 0 0 0 0 0 0 0 0 0 -3 0 -8 -32 0 0 0 0 0 0 0 0 0 0 0 0 0 0 0 0 0 0 0 0 0 0 0 0 0 0 0 0 -135 -127 -101 -73 -64 -90 -70 -65 -58 -61 -37 -23
0 0 0 0 0 0 0 0 0 0 0 -9 -12 0 0 0 0 0 0 0 0 0 0 0 0 0 0 0 0 0 0 0 0 0 0 0 0 0 0 0 0 -31 -62 -54 -109 -98 -81 -67 -57 -52 -58 -64 0 0
-1 0 0 0 0 0 0 0 0 -17 0 0 0 -18 -15 0 0 0 0 0 0 0 0 0 0 0 0 0 0 0 0 0 0 0 0 0 0 0 0 0 0 -29 -148 -119 -58 -49 -62 -69 -59 -52 -60 0 0 0
-8 0 0 0 0 0 0 0 0 0 0 -2 -6 -13 0 0 0 0 0 0 0 0 0 0 0 0 0 0 0 0 -47 -69 -11 0 0 0 0 0 0 0 0 -183 -156 -111 0 0 -78 -45 -50 -54 -78 -91 0 0
0 0 0 0 0 0 0 -16 0 0 0 -7 0 0 0 0 0 0 0 0 0 0 0 0 0 0 0 0 0 -73 -54 -83 -20 0 -75 -32 -67 -179 -182 -134 -130 -102 -101 -10 0 0 -45 -64 -115 -68 -82 -85 -33 0
0 0 0 0 0 0 0 0 -24 -2 0 0 -26 0 0 0 0 0 0 0 0 0 0 0 0 0 0 0 0 -97 -47 -23 -40 -49 -21 -62 -134 -204 -193 -171 -118 -130 -94 -65 -78 0 0 -186 -192 -105 -41 0 0 0
0 0 0 0 0 -21 -34 -44 0 0 0 -18 -21 0 0 0 0 0 0 0 0 0 0 0 0 0 0 0 0 -32 -58 -116 -22 -19 -35 -153 -219 -180 -87 -77 -87 -85 -81 -72 -69 -100 -116 -107 0 0 0 0 0 0
0 0 0 -14 -33 -52 -32 -24 0 0 0 0 0 0 0 0 0 0 0 0 0 0 0 0 0 0 0 -6 -65 -59 -34 -29 -34 0 0 0 -193 -191 -88 -59 -84 -80 -82 -87 -123 -64 0 0 0 0 0 0 0 0
0 -1 0 -7 -8 -13 0 -3 0 0 0 0 0 0 0 0 0 0 0 0 0 0 0 0 0 0 0 -29 -20 -11 -19 -27 -2 0 0 -99 -64 -84 0 -72 -81 -93 -98 -40 0 0 0 0 0 0 0 0 0 0
0 0 0 -2 -29 0 0 -2 0 -23 -72 0 0 0 0 0 0 -1 0 0 0 0 0 0 0 0 0 0 -23 -79 -36 -57 -93 0 -55 -65 -28 0 0 0 -112 -77 0 0 0 0 0 0 0 0 0 0 0 0
0 0 0 -3 -25 0 0 -6 -9 0 0 0 0 0 0 0 0 0 0 0 0 0 0 -4 0 0 0 0 -18 -38 -71 -113 0 0 0 0 0 0 0 0 0 0 0 0 0 0 0 0 0 -8 -11 -65 -73 -75
0 0 -9 -16 -52 0 -14 -6 0 0 0 0 0 0 0 0 0 0 0 0 0 0 0 0 0 0 0 -8 -4 0 0 0 -85 -98 0 0 0 0 0 -34 0 0 -22 -39 -40 -38 -52 -67 -70 -66 -73 -85 -46 -63
-29 0 -15 -25 -7 -4 0 0 0 0 0 0 0 0 0 0 0 0 0 0 0 0 0 0 0 0 0 0 0 0 0 0 -87 -50 0 0 0 -32 0 -50 -63 -90 -68 -58 -65 0 -59 -42 -67 -72 -69 -68 -62 -49
-1 -2 -33 -48 -49 -65 0 0 0 0 0 0 0 0 0 0 0 0 0 0 0 0 0 0 0 0 0 0 0 0 -58 0 -62 0 0 0 -45 -41 -66 -89 -104 -92 -54 -44 -34 -44 -59 -51 -69 -79 -53 -43 -66 -68
-5 -25 -40 -13 -40 0 0 0 0 0 0 0 0 0 0 0 0 0 0 0 0 0 0 0 0 0 0 0 0 0 0 0 0 0 -7 -18 -30 -87 -68 -69 -57 -44 -56 -44 -44 -35 -13 0 0 0 -37 -43 -55 -50
-7 -16 -13 0 0 0 0 0 0 0 0 0 0 0 0 0 0 0 0 0 0 0 0 0 0 0 0 0 0 0 0 0 0 0 -31 -81 -113 -61 -32 -51 -72 -39 -13 0 -24 -34 -29 -47 -18 -34 -38 -46 -58 -41
-28 -1 0 0 0 0 0 0 0 0 0 0 0 0 0 0 0 0 0 0 0 0 0 0 0 0 0 0 0 0 0 0 0 0 -19 -69 -44 -47 -5 0 -62 -60 -69 -66 -51 -36 -37 -30 -51 -42 -44 -40 -38 -37
0 0 0 0 0 -4 0 0 -1 -12 0 0 0 0 0 0 0 0 0 0 -9 -19 -24 -32 0 0 0 -35 0 0 -5 -59 -96 -36 -50 -68 0 0 -2 -59 -61 -88 -127 -72 -37 -47 -51 -67 -67 -65 -54 -40 -36 -36
0 0 0 0 -3 -16 -7 -4 0 0 0 0 0 0 -9 -3 0 0 0 0 -24 -19 -40 0 0 0 0 0 0 -29 -54 -152 0 -45 0 -23 -63 -42 -35 -35 -42 -42 -95 -84 -65 -49 -50 -28 0 0 0 0 0 0
0 0 0 0 0 -23 -10 -19 0 0 0 0 -3 -3 0 0 0 -1 -18 -25 -30 -4 0 -25 0 0 0 0 0 0 -102 -107 -52 -10 -88 -69 0 0 -48 -56 -53 -68 -70 -103 0 -23 -57 -41 -64 -65 -64 -61 -20 0
0 0 0 0 0 0 -4 -4 -2 -4 0 -6 0 0 0 0 -2 0 -4 -44 -95 -126 -124 0 -16 -144 -107 -102 -21 -57 -58 -46 -84 -85 -16 0 0 0 0 0 0 0 0 0 -15 -102 -78 -75 -72 -72 -70 -70 -90 0
0 0 0 0 0 0 0 0 0 0 0 0 0 0 -7 0 -11 -30 -66 -85 -97 -74 -40 -42 -67 -106 -72 -46 -87 -107 0 -60 -5 -21 -30 0 0 0 0 0 0 0 0 0 0 0 0 0 -79 0 0 -80 0 -30
0 0 0 0 0 0 -1 0 0 -1 0 0 -5 -1 -6 0 0 0 0 0 -68 -61 -75 -92 -97 -34 -43 -37 -46 -62 -56 0 -57 -35 0 0 0 0 0 0 0 0 0 0 0 0 0 0 0 0 0 0 0 0
0 0 0 0 0 0 0 0 -9 -10 -7 -16 -18 0 0 0 0 0 0 0 0 -44 -55 0 -62 -65 -48 -44 -45 -41 0 0 0 0 0 0 0 0 0 0 0 0 0 0 0 0 0 0 0 0 0 0 0 0
0 0 0 -6 0 -11 -19 -17 -9 -7 -19 -28 -25 -35 0 0 0 0 0 0 0 -6 0 0 0 0 0 0 0 0 0 0 0 0 0 0 0 0 0 0 0 0 0 0 0 0 0 0 0 0 0 0 0 0
0 0 -9 -1 -1 -3 -4 -8 -1 -1 -4 -9 0 0 0 0 0 -1 0 0 0 0 0 0 0 0 0 0 0 0 0 0 0 0 0 0 0 0 0 0 0 0 0 0 0 0 0 0 0 0 0 0 0 0
Wind_Speed
35 35 34 27 24 23 23 23 23 21 21 19 19 19 14 12 12 16 18 14 17 22 27 19 17 16 17 15 17 19 22 15 18 19 19 18 19 19 20 17 19 18 19 21 22 19 19 20 16 16 17 17 16 17
36 34 34 28 22 21 21 21 23 22 22 21 17 19 16 9 9 13 19 15 15 20 24 23 17 10 8 9 14 13 12 14 14 17 19 18 19 19 21 19 16 17 16 20 19 21 18 18 15 17 15 16 17 17
36 36 34 28 21 20 20 20 22 21 21 21 15 15 12 7 7 11 17 16 19 25 30 20 20 20 7 7 5 5 8 6 12 14 18 17 17 17 20 20 18 17 15 18 21 20 20 18 17 16 17 17 18 17
35 34 33 28 19 18 20 21 22 21 21 18 16 14 8 6 7 10 17 16 18 20 24 20 17 22 14 5 4 12 2 11 14 16 17 17 19 17 19 19 21 21 15 18 19 22 19 21 16 18 19 18 15 16
35 35 34 26 17 17 19 20 20 19 17 17 15 10 6 7 7 12 18 16 13 18 22 27 31 17 16 3 2 7 10 2 16 19 16 19 20 21 20 19 20 16 20 19 20 19 14 13 15 19 19 19 19 18
35 34 34 24 19 17 17 17 16 17 15 13 12 8 4 5 8 15 21 16 7 12 20 22 22 19 18 12 4 5 4 5 11 14 14 16 19 21 22 21 21 20 13 15 18 15 12 16 18 16 18 18 19 19
35 33 33 21 18 18 18 18 16 14 12 12 8 5 4 3 10 15 17 15 9 13 18 22 21 18 18 13 9 9 4 8 7 16 18 20 28 23 26 31 27 24 17 12 16 12 16 15 16 17 17 17 17 19
34 32 27 18 17 18 17 16 15 11 10 7 5 3 5 8 18 20 15 4 10 17 17 18 19 20 17 14 9 10 8 7 12 15 19 20 21 21 24 27 26 21 9 11 11 11 13 15 16 14 14 16 18 21
31 31 18 18 16 16 15 13 10 11 6 4 1 3 10 15 17 15 15 8 7 17 18 15 17 16 19 15 13 12 11 12 15 15 21 12 19 23 25 23 22 7 6 9 11 14 14 16 13 13 17 18 20 20
31 22 18 18 18 16 16 12 8 9 4 3 7 13 15 13 9 7 14 13 13 15 15 17 16 16 18 17 15 15 13 15 19 17 19 20 27 22 25 25 22 15 8 8 14 17 18 15 10 10 13 18 20 20
24 16 16 17 17 16 13 10 8 6 6 13 11 15 12 7 10 12 13 13 13 15 14 14 11 19 15 15 17 14 16 18 20 17 18 19 21 20 21 25 23 7 6 12 18 20 10 9 10 10 14 16 19 18
14 15 16 17 16 14 12 9 11 10 11 11 8 8 9 11 12 12 13 14 13 14 12 14 18 13 17 12 15 14 16 16 18 19 19 20 18 18 17 13 10 11 17 20 20 19 10 11 10 10 10 12 14 14
13 13 15 14 14 14 13 11 11 12 5 10 12 11 12 13 13 13 11 12 13 12 12 17 20 16 13 10 14 15 17 20 21 20 19 19 19 16 14 13 11 13 14 16 16 14 12 12 13 12 11 14 15 16
12 14 17 17 17 15 15 13 15 11 14 13 12 14 14 14 15 11 12 12 14 17 18 21 17 16 15 14 14 14 20 20 20 20 20 22 22 20 12 14 10 11 12 14 14 15 15 15 15 16 18 19 20 18
12 15 16 19 21 18 12 15 17 17 15 14 13 15 14 15 16 16 17 18 20 20 19 16 16 16 15 16 15 18 19 17 16 18 21 23 22 20 18 11 9 11 13 15 16 17 17 18 18 18 19 21 21 15
13 15 18 16 18 12 10 13 17 17 15 14 14 13 12 12 14 13 13 15 14 15 14 14 16 16 15 16 17 18 18 17 19 20 20 18 16 18 16 17 12 13 15 16 18 17 17 18 18 18 19 18 17 15
19 25 18 17 12 12 14 14 14 18 18 15 14 14 15 18 16 15 16 16 18 16 13 14 15 15 15 17 18 18 18 21 21 23 22 19 19 18 19 19 20 17 14 15 17 17 16 16 15 15 17 18 16 12
14 15 17 13 13 16 17 15 16 16 18 16 16 14 14 17 18 17 16 17 16 14 14 15 14 16 17 18 18 19 21 23 23 25 25 24 20 25 22 21 22 21 17 14 15 15 16 16 14 14 16 17 16 14
13 22 14 18 17 15 15 19 17 16 18 18 20 20 19 20 23 23 19 18 16 16 14 17 17 18 18 18 20 22 23 23 25 26 28 25 18 12 22 23 23 21 15 14 15 16 17 17 15 15 15 16 14 14
14 13 14 17 16 16 14 14 18 16 18 19 20 21 20 21 21 20 19 18 17 16 18 19 18 19 20 23 18 20 21 23 23 23 22 19 14 19 20 21 21 11 10 14 18 17 19 19 20 20 22 21 17 17
16 17 12 14 16 13 14 13 17 18 17 18 18 18 20 21 20 20 21 17 17 19 22 21 23 24 24 21 18 18 19 21 21 21 19 17 14 11 22 23 18 12 14 16 18 20 19 21 23 25 25 24 19 16
15 15 14 12 12 14 14 15 15 15 18 18 18 17 18 18 21 22 21 18 23 25 24 25 23 19 19 18 19 17 18 21 22 22 21 8 8 12 17 16 16 16 19 20 20 21 23 24 25 24 23 22 21 16
12 15 14 14 15 14 16 15 16 16 17 18 18 17 18 19 19 19 20 17 24 24 24 21 21 20 19 20 20 22 22 21 22 20 20 19 16 16 17 19 19 19 21 20 17 17 20 22 23 24 20 23 24 22
11 13 15 14 14 15 14 15 15 17 18 18 18 20 19 19 19 20 21 20 23 24 25 25 20 22 22 18 20 19 19 19 18 19 18 13 13 17 19 22 19 18 17 19 18 19 22 23 25 25 23 21 22 22
17 16 14 15 17 14 13 15 17 17 18 18 18 17 17 17 17 18 19 20 20 21 21 15 15 14 18 20 20 19 18 16 15 13 15 17 17 18 19 19 19 20 21 21 22 23 24 26 27 29 27 24 23 24
15 16 17 18 17 18 19 23 23 21 20 19 18 17 16 15 14 13 13 14 12 11 12 17 21 21 20 19 14 10 12 15 17 17 18 17 18 18 20 22 23 22 21 21 24 26 27 24 25 29 29 26 23 23
20 20 20 19 20 21 21 21 21 21 21 19 18 17 15 16 16 15 18 12 12 10 10 14 20 19 15 16 18 17 15 16 18 18 18 20 20 21 21 23 23 22 23 23 23 23 23 22 24 26 27 23 19 21
19 20 21 22 22 20 20 21 21 21 20 18 18 18 19 20 12 8 10 11 10 10 10 7 8 18 15 16 15 15 17 18 19 20 19 21 19 23 26 25 25 27 26 25 23 21 20 22 25 27 26 25 24 23
18 19 20 22 21 19 18 19 20 20 21 21 19 20 19 8 8 9 10 9 10 16 17 16 14 20 20 18 18 18 18 18 19 22 23 24 25 26 30 30 29 29 28 26 26 26 26 26 27 26 26 26 25 25
18 22 17 21 21 21 22 26 22 23 25 26 18 9 9 7 3 3 3 5 7 13 11 18 22 21 21 20 20 20 21 22 23 23 24 26 26 27 28 29 30 29 29 29 28 28 28 27 27 27 27 27 27 27
21 23 19 18 16 16 20 22 16 14 12 10 11 5 11 6 0 8 10 6 6 12 17 20 22 22 22 22 22 21 22 24 25 24 24 24 25 27 28 29 29 30 30 30 29 29 28 28 28 28 28 28 28 29
24 22 19 20 18 23 19 9 10 8 9 1 3 5 6 4 5 9 16 16 20 22 21 23 24 24 23 23 23 23 23 23 24 24 25 25 26 27 28 28 29 29 29 28 29 29 28 28 28 28 28 29 30 31
23 25 26 25 22 19 20 18 17 12 10 10 8 6 6 8 18 18 19 25 24 22 22 23 24 24 24 25 25 25 24 24 23 23 24 26 26 27 27 28 28 28 28 28 28 28 28 29 29 29 30 32 32 33
Wind_Direction
286 282 281 282 280 280 283 285 288 293 298 305 302 301 304 305 309 307 310 325 311 308 304 316 321 318 332 336 330 332 331 349 346 342 336 328 327 328 327 343 341 331 306 279 278 280 286 312 326 322 328 350 359 342
283 280 278 280 278 276 278 281 283 288 292 297 300 296 300 305 313 315 307 323 320 311 307 318 317 296 282 317 329 335 338 350 1 350 329 327 318 323 332 328 360 337 341 300 299 292 300 307 336 329 349 359 352 357
281 276 277 278 273 272 273 278 279 286 290 291 297 298 302 304 309 318 311 317 316 311 312 323 325 324 354 190 196 330 342 19 342 351 334 334 323 327 331 309 349 353 338 314 299 292 290 296 314 331 339 347 4 19
278 275 273 275 268 266 270 274 277 281 286 285 293 298 304 304 310 314 308 317 319 325 314 322 334 324 335 8 127 176 341 335 323 330 328 327 322 319 318 334 326 337 339 315 309 291 294 285 322 320 312 330 353 7
276 271 267 269 261 261 267 271 273 278 282 284 293 301 301 307 313 310 306 315 329 324 313 312 295 338 331 35 127 157 170 192 308 308 320 314 310 299 301 329 324 22 315 312 297 299 313 312 295 305 298 309 313 316
273 265 262 260 257 257 261 266 271 276 282 285 292 294 309 321 320 309 297 316 355 337 324 318 320 322 320 344 25 127 136 334 313 313 322 319 308 301 288 293 315 290 192 352 293 290 322 294 287 310 280 295 283 301
267 260 257 252 250 252 257 262 266 273 276 286 290 294 306 323 309 298 304 329 18 344 326 314 310 324 329 333 338 341 8 339 333 306 305 304 255 295 281 251 247 266 325 105 265 284 261 278 270 282 274 299 326 316
258 254 250 242 244 248 249 253 261 266 276 282 290 311 318 309 289 288 310 16 346 329 326 316 314 313 333 320 334 342 351 348 318 314 303 301 302 290 283 266 266 296 342 344 314 4 7 338 316 336 342 326 308 302
250 248 236 234 235 233 244 248 253 256 265 268 311 17 312 290 284 304 309 351 337 311 313 324 316 321 312 323 330 335 343 332 317 316 290 315 290 270 256 265 288 335 358 348 337 328 334 308 327 339 285 336 339 350
245 238 228 226 229 237 240 240 245 237 188 126 268 280 287 297 318 344 311 326 322 309 316 311 317 314 309 313 318 324 342 314 298 309 276 282 246 205 211 211 221 227 332 353 319 303 305 307 81 56 8 340 350 7
237 216 216 221 226 232 229 220 209 162 192 246 271 275 292 324 318 309 309 310 310 313 314 334 353 299 314 307 306 335 312 290 277 292 287 278 266 277 271 233 223 80 40 319 300 289 147 87 93 19 349 355 1 13
207 206 212 217 218 220 217 191 157 220 244 261 283 298 293 300 305 304 301 305 308 306 324 337 308 348 297 324 310 322 305 306 284 269 261 275 298 286 274 282 291 298 276 267 276 281 351 340 359 29 43 29 21 26
182 197 202 206 214 216 210 181 190 231 245 256 271 280 289 290 290 289 296 300 303 308 321 318 280 309 336 346 327 322 292 268 270 262 269 283 278 284 287 285 301 304 295 305 316 333 342 346 357 20 28 11 6 4
194 206 210 214 216 215 209 180 213 225 240 256 263 265 278 283 283 297 288 298 299 285 288 285 293 312 322 318 323 316 269 271 267 263 274 289 274 250 311 301 324 310 331 344 346 346 349 357 360 357 353 349 349 359
185 198 204 212 212 210 194 204 215 227 246 256 270 267 276 282 272 279 280 281 271 277 283 305 303 312 311 309 315 274 262 267 277 281 267 272 271 256 267 302 312 315 341 348 349 345 347 346 348 352 352 348 350 7
189 196 210 202 205 184 182 205 223 231 252 260 271 277 282 293 278 289 294 281 295 304 321 309 305 313 311 295 280 265 263 268 270 271 273 276 302 283 278 253 297 324 347 353 348 350 353 355 359 359 358 4 9 17
193 206 203 198 165 176 203 220 233 240 247 261 274 277 270 265 273 281 279 287 293 299 315 306 303 311 314 292 284 280 279 287 294 293 288 280 309 291 293 280 267 304 358 8 2 1 13 15 18 18 14 13 18 22
213 188 188 156 178 204 215 231 237 247 247 256 264 269 273 265 263 271 286 287 290 298 306 296 311 306 303 294 290 290 295 302 299 297 294 293 315 260 274 285 278 294 336 9 12 12 7 6 8 8 4 6 7 9
187 187 178 191 202 216 228 230 240 249 251 254 251 256 262 256 243 239 274 294 298 299 301 289 292 291 301 313 310 314 309 311 301 293 294 302 310 327 287 283 282 305 348 1 3 2 1 0 8 2 3 2 360 359
180 172 198 207 216 224 237 247 239 253 251 254 257 259 261 254 257 265 284 295 297 295 284 282 301 301 311 310 328 324 315 309 300 290 305 339 320 290 285 284 296 2 32 7 356 358 350 352 358 356 349 348 345 344
186 199 206 212 223 237 240 250 241 252 261 255 259 264 260 263 273 276 270 300 300 285 282 293 297 293 304 319 323 328 323 296 292 299 287 307 141 12 244 257 321 10 2 359 353 348 356 352 350 348 346 350 357 354
196 205 214 239 245 254 258 252 255 260 255 252 259 272 275 281 269 263 277 299 272 270 281 289 302 318 320 319 315 325 314 292 289 282 271 105 84 25 327 329 344 354 351 343 347 351 351 351 351 356 2 358 355 359
204 212 226 238 245 254 251 254 251 254 254 254 264 270 269 260 269 281 289 310 259 254 283 297 293 299 312 310 295 273 269 272 280 288 301 311 333 346 343 337 342 344 346 351 1 8 4 359 0 2 19 13 7 10
218 232 233 247 253 254 254 251 259 250 246 246 248 241 248 261 266 279 289 305 254 263 262 264 302 290 280 287 263 260 255 271 282 285 305 338 343 345 345 332 340 347 354 355 0 358 351 350 344 351 5 11 13 12
199 212 230 230 228 244 253 247 241 238 232 231 230 235 241 249 248 244 248 260 275 282 299 326 297 291 249 235 235 247 263 272 302 332 340 340 346 350 355 1 0 355 355 350 344 343 342 342 341 337 345 351 352 351
202 206 205 204 210 204 201 192 195 200 205 208 212 211 211 212 215 232 222 180 191 178 199 174 181 201 217 220 244 327 323 349 355 348 357 10 8 1 352 349 349 347 350 351 343 339 341 349 346 341 342 344 347 350
168 172 180 189 185 181 181 185 189 192 192 192 197 200 198 184 177 177 172 187 177 182 185 182 160 181 222 227 199 226 291 334 1 11 20 21 16 11 5 360 353 358 352 351 349 347 349 352 351 349 351 358 358 352
166 169 165 170 171 174 173 177 179 183 189 192 183 179 174 178 200 228 205 200 199 182 183 268 240 113 66 63 31 10 14 18 27 24 28 21 29 13 359 2 1 353 354 354 356 358 353 348 343 343 347 349 348 347
164 169 169 165 166 169 180 181 189 189 185 179 172 167 169 206 207 194 176 187 171 1 5 3 353 27 40 28 17 11 19 33 21 12 8 5 2 359 345 348 350 350 351 353 351 350 347 347 346 347 348 348 348 343
159 161 167 160 157 157 160 161 167 174 169 163 170 164 45 23 329 226 290 319 347 8 352 10 24 31 34 34 32 19 8 9 13 14 4 359 359 358 358 359 359 360 359 358 356 355 354 355 355 354 353 351 350 349
160 155 158 162 158 156 152 149 155 159 162 165 172 58 31 2 76 2 352 313 289 340 2 10 12 10 16 14 18 21 10 0 4 10 14 14 10 6 3 2 1 360 358 357 356 356 356 356 355 353 351 350 349 348
153 153 159 157 154 148 151 146 157 171 180 263 238 213 207 271 298 326 335 337 355 8 3 13 21 18 23 24 20 19 19 16 12 13 14 13 12 10 9 9 8 8 7 8 6 4 2 2 360 357 355 353 351 349
153 150 148 147 153 159 157 158 157 159 164 176 192 228 273 296 14 341 326 347 1 19 30 30 31 29 21 13 10 13 19 26 30 29 23 20 18 18 17 16 17 17 18 16 14 13 10 7 3 1 358 354 351 349